Starlink 30911

operational
NORAD ID: 58374 Int'l Des: 2023-178 Owner: SPXS Country: US Constellation: starlink
LEOCIRCULAR

About Starlink 30911

Description loading...

Live Position

Loading 3D Globe...

Upcoming Passes

Altitude History

Altitude vs Time

uPlot chart will show altitude changes over time

Two-Line Element Set

1 58374U 23178A 25303.84317744 .00004781 00000-0 17344-3 0 9991
2 58374 53.1582 244.0301 0001039 84.7193 275.3926 15.30202451110001
Epoch: Oct 30, 2025 • Age: 5 hours

Current Status

Altitude 479.5 km
Velocity 7.63 km/s
Sub-Earth Point 46.31°N, 123.56°W
Launch Date Nov 20, 2023
Age 1.9 years
Type internet

Technical Details

Classification Payload
Mass 730.00 kg
Dry Mass 700.00 kg
Total Mass 730.00 kg
Length 0.30 m
Diameter 4.10 m
Span 29.00 m
Shape Box + pan
Manufacturer SPXS
Bus Type Starlink V2M
Phase Status In Orbit
Owner/State SPXS/US

Large Constellations

Loading constellations...